Address 0x4382232370b8f43882cdacf0dd29d975c06ccc7a 1

 
Txn Hash Method
Block
From
To
Value [Txn Fee]
0x4bf3c244b6ce022cbc3ce960f1b2358343da03f30ff27738490b4d65042ecb0bDeposit220693942021-12-03 0:52:321 day 1 hr ago0x4382232370b8f43882cdacf0dd29d975c06ccc7aOUT SushiSwap: MiniChef0 MATIC0.0033921
0x76c4cc457b4d17501beea68c883c4dd9b8811d8d4a03f3962654bb9b0c2ce930Add Liquidity ET...220693852021-12-03 0:52:141 day 1 hr ago0x4382232370b8f43882cdacf0dd29d975c06ccc7aOUT SushiSwap: SushiV2Router02100.921453589550019 MATIC0.00531735
0x0cebc8f9712b4f4f76ab37ab86d6e44f3ddbf0a796a84c53884b9866e8518168Borrow ETH220693612021-12-03 0:51:221 day 1 hr ago0x4382232370b8f43882cdacf0dd29d975c06ccc7aOUT 0xbeadf48d62acc944a06eeae0a9054a90e5a7dc970 MATIC0.01368675
0x4ec855e19a41622fb797326c7505973a506ab1a21c1190d7dbeda6281bc338f4Approve Delegati...220693342021-12-03 0:50:281 day 1 hr ago0x4382232370b8f43882cdacf0dd29d975c06ccc7aOUT 0x59e8e9100cbfcbcbadf86b9279fa61526bbb87650 MATIC0.00161949
0x6bd2ba0b1467836a3941ad65177b480c471683e2c1342c446c237c1aa64833e3Borrow220693112021-12-03 0:49:381 day 1 hr ago0x4382232370b8f43882cdacf0dd29d975c06ccc7aOUT 0x8dff5e27ea6b7ac08ebfdf9eb090f32ee9a30fcf0 MATIC0.00995988
0x3cb479f78422f1016e259cc81973660df95b82099758edf75c77b867053eabeaDeposit220689882021-12-03 0:38:321 day 1 hr ago0x4382232370b8f43882cdacf0dd29d975c06ccc7aOUT 0x8dff5e27ea6b7ac08ebfdf9eb090f32ee9a30fcf0 MATIC0.00716454
0x3a670bb2704e762ad1b18e98352a37c2501bc4d0ece2dd35b3601aa137d26ce3Swap220689032021-12-03 0:35:381 day 1 hr ago0x4382232370b8f43882cdacf0dd29d975c06ccc7aOUT Metamask: Swap Router0 MATIC0.059345946
0x44b18de0c6ff15c079c0217c68b72101fd77937fa036b170391a3e0b36a97849Deposit220688722021-12-03 0:34:361 day 1 hr ago0x4382232370b8f43882cdacf0dd29d975c06ccc7aOUT SushiSwap: MiniChef0 MATIC0.0033921
0x7421179d858a1942f7b1c8badf8e330aab7840065adf717fdf88328b91ae1f39Add Liquidity ET...220688602021-12-03 0:34:081 day 1 hr ago0x4382232370b8f43882cdacf0dd29d975c06ccc7aOUT SushiSwap: SushiV2Router0250.080404656 MATIC0.00552459
0xaffadec11112ddac1096b05a67ce6042271762c1ebe4b3e46ac8e1ae0e893ab4Remove Liquidity...220688252021-12-03 0:32:581 day 1 hr ago0x4382232370b8f43882cdacf0dd29d975c06ccc7aOUT SushiSwap: SushiV2Router020 MATIC0.00971085
0x810ed65485f4c5337c088534ac6519905cf8da40685d3536912dae8c4ad8f009Withdraw And Har...220688022021-12-03 0:32:121 day 1 hr ago0x4382232370b8f43882cdacf0dd29d975c06ccc7aOUT SushiSwap: MiniChef0 MATIC0.0092256
0x69f89318212285c9285cceb841a9d9685547acea8865942fe620247d282c4c28Deposit220110322021-12-01 11:28:162 days 14 hrs ago0x4382232370b8f43882cdacf0dd29d975c06ccc7aOUT 0x8dff5e27ea6b7ac08ebfdf9eb090f32ee9a30fcf0 MATIC0.00684312
0xd1b75b26669d2347910ddc0d21709b06bb9283755666ad4c0035f571317919afSwap220109822021-12-01 11:26:322 days 14 hrs ago0x4382232370b8f43882cdacf0dd29d975c06ccc7aOUT Metamask: Swap Router150 MATIC0.246307929
0x52de4d69695f61469ca56a8670810ec8dd4f97ef3faac81512183494dfdc22f00xd3454a35219932812021-12-01 0:40:073 days 1 hr ago0x4382232370b8f43882cdacf0dd29d975c06ccc7aOUT 0x35784a624d4ffbc3594f4d16fa3801fef063241c0 MATIC0.02740443
0xd6363502bef6f7d7051453e35d4c7d476386ea74d33e6b5d556adbc0aa837c60Approve219932742021-12-01 0:39:493 days 1 hr ago0x4382232370b8f43882cdacf0dd29d975c06ccc7aOUT Aave: amUSDT Token0 MATIC0.00154932
0xae635887dc7146e463e3725887cbc6ddfed961b838fdd39316f1b5bfff6965410xd3454a35219925712021-12-01 0:15:313 days 2 hrs ago0x4382232370b8f43882cdacf0dd29d975c06ccc7aOUT 0x35784a624d4ffbc3594f4d16fa3801fef063241c0 MATIC0.02819796
0xb2973035cc7e996e7c635075b49ce281262d4e74a466e1ef872640a86269792dApprove219925622021-12-01 0:15:133 days 2 hrs ago0x4382232370b8f43882cdacf0dd29d975c06ccc7aOUT Aave: amDAI Token0 MATIC0.00154932
0x822ad7d38292e08e5a33c9a6b3c95d623107c8378e1251a5fdcece18a6679a72Deposit219737082021-11-30 12:21:333 days 13 hrs ago0x4382232370b8f43882cdacf0dd29d975c06ccc7aOUT 0x8dff5e27ea6b7ac08ebfdf9eb090f32ee9a30fcf0 MATIC0.016020521
0xd0fc102b1551fdbff7d5caa0127e831a5f09435ba1e63545a42bbc920318ccf0Deposit219729072021-11-30 11:48:403 days 14 hrs ago0x4382232370b8f43882cdacf0dd29d975c06ccc7aOUT 0x8dff5e27ea6b7ac08ebfdf9eb090f32ee9a30fcf0 MATIC0.038579035
0x99299e1e93d069f390d247e740130fab1a035a820a0b99302fe3da2e47c068edApprove219727852021-11-30 11:42:043 days 14 hrs ago0x4382232370b8f43882cdacf0dd29d975c06ccc7aOUT Maker: Dai Stablecoin0 MATIC0.006300712
0xf085ed69c95f8463c4a881cfe24112138e89f5acf1e93b6a407779c4cf30c118Swap219727762021-11-30 11:41:103 days 14 hrs ago0x4382232370b8f43882cdacf0dd29d975c06ccc7aOUT Metamask: Swap Router0 MATIC0.0867718
0x53593560be75a3226d9e1bba95bff4db97e3258647ff30b3256be54bbe2c9184Transfer219727752021-11-30 11:41:043 days 14 hrs ago0x4382232370b8f43882cdacf0dd29d975c06ccc7aSELF0x4382232370b8f43882cdacf0dd29d975c06ccc7a0 MATIC0.002459688
0x1d44558461143ca3b3ee7b55848c6352724d0a7010f25788657306d17339f23cSwap219413942021-11-29 15:44:294 days 10 hrs ago0x4382232370b8f43882cdacf0dd29d975c06ccc7aOUT Metamask: Swap Router0 MATIC0.18405333
0x236cd8bcc33111f833d69ca4cbd30aa307b83012549a34e095d34056c5d56d30Swap219384362021-11-29 13:41:554 days 12 hrs ago0x4382232370b8f43882cdacf0dd29d975c06ccc7aOUT Metamask: Swap Router0 MATIC0.076103702
0xf43d1464b41c8eb6dd0d4774bd22b7ff0d90ee2d2ce8e05bb93241dfc4ced22fSwap219383822021-11-29 13:40:034 days 12 hrs ago0x4382232370b8f43882cdacf0dd29d975c06ccc7aOUT Metamask: Swap Router0 MATIC0.19144776
[ Download CSV Export 
Latest 2 internal transactions
Parent Txn Hash Block From To Value
0x0cebc8f9712b4f4f76ab37ab86d6e44f3ddbf0a796a84c53884b9866e8518168220693612021-12-03 0:51:221 day 1 hr ago 0xbeadf48d62acc944a06eeae0a9054a90e5a7dc970x4382232370b8f43882cdacf0dd29d975c06ccc7a112.17791210490455 MATIC
0x7421179d858a1942f7b1c8badf8e330aab7840065adf717fdf88328b91ae1f39220688602021-12-03 0:34:081 day 1 hr ago SushiSwap: SushiV2Router020x4382232370b8f43882cdacf0dd29d975c06ccc7a0.054578865945947176 MATIC
[ Download CSV Export 
Loading

Contract Name:
0 MATIC

Compiler Version
0

Optimization Enabled:
0 MATIC

Other Settings:
-NA-
Block Transaction Gas Used Reward
Age Block Fee Address BC Fee Address Voting Power Jailed Incoming
Block Uncle Number Difficulty Gas Used Reward
Loading
Loading
Make sure to use the "Vote Down" button for any spammy posts, and the "Vote Up" for interesting conversations.